Clinton, MO

2:56 PM CDT on October 17, 2017 (GMT -0500)
Clinton Memorial

Weather History for KGLY - February, 2012

Change the Weather History Date:

Thursday, February 2, 2012

  Actual Average (KSZL) Record (KSZL)
Temperature  
Mean Temperature 46 °F -  
Max Temperature 64 °F 40 °F 69 °F (2003)
Min Temperature 28 °F 23 °F 0 °F (2011)
Degree Days  
Heating Degree Days 19    
Moisture  
Dew Point 29 °F    
Average Humidity 59    
Maximum Humidity 93    
Minimum Humidity 22    
Precipitation  
Precipitation 0.00 in - - ()
Sea Level Pressure  
Sea Level Pressure 30.22 in    
Wind  
Wind Speed 2 mph (ESE)    
Max Wind Speed 10 mph    
Max Gust Speed -    
Visibility 10 miles    
Events      
Averages and records for this station are not official NWS values.
T = Trace of Precipitation, MM = Missing Value Source: NWS Daily Summary

Daily Weather History Graph

Daily Weather History Graph

Search for Another Location

Airport or City:

Trip Planner

Search our weather history database for the weather conditions in past years. The results will help you decide how hot, cold, wet, or windy it might be!

Date:

Astronomy

Feb. 02, 2012 Rise Set
Actual Time 7:19 AM CST 5:37 PM CST
Civil Twilight 6:51 AM CST 6:05 PM CST
Nautical Twilight 6:19 AM CST 6:37 PM CST
Astronomical Twilight 5:48 AM CST 7:08 PM CST
Moon 12:51 PM CST (2/2) 3:00 AM CST (2/2)
Length of Visible Light 11h 14m
Length of Day
10h 18m
Waxing Gibbous, 74% of the Moon is Illuminated
Feb 2
Waxing Gibbous
Feb 7
Full
Feb 14
Last Quarter
Feb 21
New
Feb 29
First Quarter

Hourly Weather History & Observations

Time (CST) Temp. Windchill Dew Point Humidity Pressure Visibility Wind Dir Wind Speed Gust Speed Precip Events Conditions
12:15 AM 35.6 °F - 30.2 °F 81% 30.20 in 10.0 mi Calm Calm - N/A   Clear
12:35 AM 33.8 °F - 30.2 °F 87% 30.20 in 10.0 mi Calm Calm - N/A   Clear
12:55 AM 33.8 °F - 30.2 °F 87% 30.20 in 10.0 mi Calm Calm - N/A   Clear
1:15 AM 33.8 °F - 30.2 °F 87% 30.20 in 10.0 mi Calm Calm - N/A   Clear
1:35 AM 32.0 °F - 30.2 °F 93% 30.20 in 9.0 mi Calm Calm - N/A   Clear
1:55 AM 32.0 °F - 28.4 °F 87% 30.20 in 10.0 mi Calm Calm - N/A   Clear
2:15 AM 32.0 °F - 28.4 °F 87% 30.20 in 10.0 mi Calm Calm - N/A   Clear
2:35 AM 30.2 °F 26.7 °F 28.4 °F 93% 30.20 in 10.0 mi East 3.5 mph - N/A   Clear
2:55 AM 32.0 °F - 28.4 °F 87% 30.20 in 10.0 mi Calm Calm - N/A   Clear
3:15 AM 30.2 °F - 28.4 °F 93% 30.20 in 9.0 mi Calm Calm - N/A   Clear
3:35 AM 32.0 °F - 28.4 °F 87% 30.20 in 10.0 mi Calm Calm - N/A   Clear
3:55 AM 30.2 °F - 28.4 °F 93% 30.20 in 10.0 mi Calm Calm - N/A   Clear
4:15 AM 30.2 °F - 28.4 °F 93% 30.21 in 10.0 mi Calm Calm - N/A   Clear
4:35 AM 30.2 °F - 28.4 °F 93% 30.21 in 10.0 mi Calm Calm - N/A   Clear
4:55 AM 30.2 °F - 28.4 °F 93% 30.22 in 10.0 mi Calm Calm - N/A   Clear
5:15 AM 30.2 °F - 28.4 °F 93% 30.22 in 9.0 mi Calm Calm - N/A   Clear
5:35 AM 30.2 °F - 28.4 °F 93% 30.23 in 9.0 mi Calm Calm - N/A   Clear
5:55 AM 30.2 °F - 28.4 °F 93% 30.23 in 8.0 mi Calm Calm - N/A   Clear
6:15 AM 30.2 °F - 28.4 °F 93% 30.24 in 10.0 mi Calm Calm - N/A   Clear
6:35 AM 28.4 °F - 26.6 °F 93% 30.24 in 9.0 mi Calm Calm - N/A   Clear
6:55 AM 28.4 °F 24.6 °F 26.6 °F 93% 30.25 in 10.0 mi East 3.5 mph - N/A   Clear
7:35 AM 28.4 °F - 26.6 °F 93% 30.26 in 10.0 mi Calm Calm - N/A   Clear
7:55 AM 30.2 °F - 28.4 °F 93% 30.27 in 9.0 mi Calm Calm - N/A   Clear
8:15 AM 32.0 °F - 30.2 °F 93% 30.27 in 8.0 mi Calm Calm - N/A   Clear
8:35 AM 33.8 °F - 32.0 °F 93% 30.27 in 8.0 mi Calm Calm - N/A   Clear
8:55 AM 35.6 °F - 32.0 °F 87% 30.28 in 9.0 mi Calm Calm - N/A   Clear
9:15 AM 39.2 °F - 33.8 °F 81% 30.28 in 9.0 mi Calm Calm - N/A   Clear
9:35 AM 41.0 °F - 35.6 °F 81% 30.29 in 8.0 mi Calm Calm - N/A   Clear
9:55 AM 44.6 °F - 35.6 °F 71% 30.29 in 9.0 mi Calm Calm - N/A   Clear
10:15 AM 48.2 °F - 37.4 °F 66% 30.30 in 8.0 mi Calm Calm - N/A   Clear
10:35 AM 51.8 °F - 33.8 °F 50% 30.30 in 9.0 mi Calm Calm - N/A   Clear
10:55 AM 53.6 °F - 33.8 °F 47% 30.30 in 10.0 mi SSE 3.5 mph - N/A   Clear
11:15 AM 57.2 °F - 33.8 °F 41% 30.29 in 9.0 mi SSE 3.5 mph - N/A   Clear
11:35 AM 60.8 °F - 32.0 °F 34% 30.28 in 10.0 mi SE 5.8 mph - N/A   Clear
11:55 AM 60.8 °F - 28.4 °F 29% 30.27 in 10.0 mi SE 10.4 mph - N/A   Clear
12:15 PM 62.6 °F - 26.6 °F 26% 30.26 in 10.0 mi East 8.1 mph - N/A   Clear
12:35 PM 62.6 °F - 24.8 °F 24% 30.25 in 10.0 mi ESE 8.1 mph - N/A   Clear
12:55 PM 64.4 °F - 24.8 °F 22% 30.24 in 10.0 mi SE 9.2 mph - N/A   Clear
1:15 PM 62.6 °F - 26.6 °F 26% 30.23 in 10.0 mi SE 8.1 mph - N/A   Clear
1:35 PM 62.6 °F - 28.4 °F 27% 30.22 in 10.0 mi SE 9.2 mph - N/A   Clear
1:55 PM 64.4 °F - 28.4 °F 26% 30.21 in 10.0 mi ESE 8.1 mph - N/A   Clear
2:15 PM 64.4 °F - 28.4 °F 26% 30.21 in 10.0 mi ESE 8.1 mph - N/A   Clear
2:35 PM 64.4 °F - 26.6 °F 24% 30.20 in 10.0 mi ESE 8.1 mph - N/A   Clear
2:55 PM 64.4 °F - 26.6 °F 24% 30.20 in 10.0 mi ESE 9.2 mph - N/A   Clear
3:15 PM 64.4 °F - 26.6 °F 24% 30.20 in 10.0 mi SE 10.4 mph 16.1 mph N/A   Clear
3:35 PM 64.4 °F - 26.6 °F 24% 30.20 in 10.0 mi ESE 6.9 mph - N/A   Clear
3:55 PM 62.6 °F - 28.4 °F 27% 30.19 in 10.0 mi ESE 8.1 mph - N/A   Clear
4:15 PM 62.6 °F - 28.4 °F 27% 30.19 in 10.0 mi SE 10.4 mph - N/A   Clear
4:35 PM 62.6 °F - 26.6 °F 26% 30.19 in 9.0 mi SE 6.9 mph - N/A   Clear
4:55 PM 60.8 °F - 26.6 °F 27% 30.19 in 10.0 mi SE 4.6 mph - N/A   Clear
5:15 PM 60.8 °F - 26.6 °F 27% 30.18 in 10.0 mi ESE 5.8 mph - N/A   Clear
5:35 PM 59.0 °F - 26.6 °F 29% 30.18 in 10.0 mi ESE 5.8 mph - N/A   Clear
5:55 PM 57.2 °F - 26.6 °F 31% 30.18 in 10.0 mi East 4.6 mph - N/A   Clear
6:15 PM 53.6 °F - 26.6 °F 35% 30.18 in 10.0 mi East 4.6 mph - N/A   Clear
6:35 PM 53.6 °F - 28.4 °F 38% 30.18 in 10.0 mi East 6.9 mph - N/A   Clear
6:55 PM 55.4 °F - 28.4 °F 36% 30.19 in 10.0 mi East 4.6 mph - N/A   Clear
7:15 PM 53.6 °F - 30.2 °F 41% 30.20 in 10.0 mi East 3.5 mph - N/A   Clear
7:35 PM 51.8 °F - 30.2 °F 44% 30.20 in 10.0 mi East 5.8 mph - N/A   Clear
7:55 PM 53.6 °F - 28.4 °F 38% 30.20 in 10.0 mi East 5.8 mph - N/A   Clear
8:15 PM 53.6 °F - 28.4 °F 38% 30.20 in 10.0 mi ESE 6.9 mph - N/A   Clear
8:35 PM 53.6 °F - 28.4 °F 38% 30.21 in 10.0 mi ESE 8.1 mph - N/A   Clear
8:55 PM 53.6 °F - 30.2 °F 41% 30.21 in 10.0 mi SE 6.9 mph - N/A   Clear
9:15 PM 53.6 °F - 28.4 °F 38% 30.21 in 10.0 mi SE 8.1 mph - N/A   Clear
9:35 PM 53.6 °F - 28.4 °F 38% 30.21 in 10.0 mi SE 6.9 mph - N/A   Clear
9:55 PM 53.6 °F - 28.4 °F 38% 30.20 in 10.0 mi SE 6.9 mph - N/A   Clear
10:15 PM 53.6 °F - 28.4 °F 38% 30.20 in 10.0 mi SE 5.8 mph - N/A   Clear
10:35 PM 53.6 °F - 28.4 °F 38% 30.20 in 10.0 mi SE 9.2 mph - N/A   Clear
10:55 PM 53.6 °F - 28.4 °F 38% 30.20 in 10.0 mi ESE 9.2 mph - N/A   Clear
11:15 PM 51.8 °F - 28.4 °F 41% 30.20 in 10.0 mi ESE 6.9 mph - N/A   Clear
11:35 PM 51.8 °F - 28.4 °F 41% 30.20 in 10.0 mi East 5.8 mph - N/A   Clear
11:55 PM 50.0 °F - 28.4 °F 43% 30.19 in 10.0 mi East 5.8 mph - N/A   Clear